Weather History for KBFW - December, 2013

Change the Weather History Date:

Sunday, December 22, 2013

  Actual Average Record
Temperature  
Mean Temperature 6 °F -  
Max Temperature 12 °F 19 °F 42 °F (2005)
Min Temperature 0 °F 2 °F -20 °F (2008)
Degree Days  
Heating Degree Days 59    
Moisture  
Dew Point 6 °F    
Average Humidity 89    
Maximum Humidity 92    
Minimum Humidity 79    
Precipitation  
Precipitation 0.06 in - - ()
Sea Level Pressure  
Sea Level Pressure 30.04 in    
Wind  
Wind Speed 5 mph (NNW)    
Max Wind Speed 8 mph    
Max Gust Speed -    
Visibility 3 miles    
Events Snow    
Averages and records for this station are not official NWS values.
T = Trace of Precipitation, MM = Missing Value Source: NWS Daily Summary

Daily Weather History Graph

Daily Weather History Graph

Search for Another Location

Airport or City:

Trip Planner

Search our weather history database for the weather conditions in past years. The results will help you decide how hot, cold, wet, or windy it might be!

Date:

Astronomy

Dec. 22, 2013 Rise Set
Actual Time 7:50 AM CST 4:18 PM CST
Civil Twilight 7:14 AM CST 4:54 PM CST
Nautical Twilight 6:35 AM CST 5:33 PM CST
Astronomical Twilight 5:58 AM CST 6:10 PM CST
Moon 9:51 PM CST (12/22) 10:28 AM CST (12/22)
Length of Visible Light 9h 40m
Length of Day
8h 28m
Waning Gibbous, 76% of the Moon is Illuminated
Dec 22
Waning Gibbous
Dec 25
Last Quarter
Jan 1
New
Jan 7
First Quarter
Jan 15
Full

Hourly Weather History & Observations

Time (CST) Temp. Windchill Dew Point Humidity Pressure Visibility Wind Dir Wind Speed Gust Speed Precip Events Conditions
12:13 AM 12.2 °F 2.9 °F 8.6 °F 85% 29.97 in 10.0 mi North 5.8 mph - N/A   Mostly Cloudy
12:33 AM 12.2 °F 4.3 °F 8.6 °F 85% 29.98 in 10.0 mi North 4.6 mph - N/A Snow Light Snow
12:53 AM 12.2 °F 2.9 °F 8.6 °F 85% 29.98 in 10.0 mi North 5.8 mph - N/A   Mostly Cloudy
1:13 AM 12.2 °F 0.7 °F 8.6 °F 85% 29.96 in 10.0 mi North 8.1 mph - N/A   Mostly Cloudy
1:33 AM 12.2 °F 2.9 °F 8.6 °F 85% 29.97 in 10.0 mi North 5.8 mph - N/A   Scattered Clouds
1:53 AM 12.2 °F 2.9 °F 6.8 °F 79% 29.98 in 10.0 mi North 5.8 mph - N/A   Clear
2:13 AM 10.4 °F 2.2 °F 6.8 °F 85% 29.97 in 10.0 mi North 4.6 mph - N/A   Clear
2:33 AM 12.2 °F 4.3 °F 6.8 °F 79% 29.98 in 10.0 mi North 4.6 mph - N/A   Clear
2:53 AM 10.4 °F 0.8 °F 6.8 °F 85% 29.99 in 10.0 mi North 5.8 mph - N/A Snow Light Snow
3:13 AM 10.4 °F 0.8 °F 6.8 °F 85% 29.99 in 10.0 mi North 5.8 mph - N/A Snow Light Snow
3:33 AM 10.4 °F -0.4 °F 8.6 °F 92% 29.99 in 2.0 mi North 6.9 mph - N/A Snow Light Snow
3:53 AM 10.4 °F 4.0 °F 8.6 °F 92% 29.99 in 1.5 mi North 3.5 mph - N/A Snow Light Snow
4:13 AM 10.4 °F 4.0 °F 6.8 °F 85% 29.98 in 2.0 mi North 3.5 mph - N/A Snow Light Snow
4:33 AM 10.4 °F - 8.6 °F 92% 29.98 in 1.5 mi Calm Calm - N/A Snow Light Snow
4:53 AM 10.4 °F - 6.8 °F 85% 29.99 in 1.8 mi Calm Calm - N/A Snow Light Snow
5:13 AM 8.6 °F 0.1 °F 6.8 °F 92% 29.99 in 3.0 mi North 4.6 mph - N/A Snow Light Snow
5:33 AM 8.6 °F 0.1 °F 6.8 °F 92% 29.99 in 2.0 mi NNW 4.6 mph - N/A Snow Light Snow
5:53 AM 8.6 °F -1.3 °F 6.8 °F 92% 29.99 in 1.5 mi NNW 5.8 mph - N/A Snow Light Snow
6:13 AM 8.6 °F -2.6 °F 6.8 °F 92% 29.99 in 1.0 mi NNW 6.9 mph - N/A Snow Snow
6:33 AM 8.6 °F 0.1 °F 6.8 °F 92% 29.99 in 1.5 mi North 4.6 mph - N/A Snow Light Snow
6:53 AM 8.6 °F 0.1 °F 6.8 °F 92% 29.99 in 1.8 mi North 4.6 mph - N/A Snow Light Snow
7:13 AM 8.6 °F -1.3 °F 6.8 °F 92% 30.00 in 3.0 mi NNW 5.8 mph - N/A Snow Light Snow
7:33 AM 8.6 °F 2.0 °F 6.8 °F 92% 30.00 in 2.0 mi NNW 3.5 mph - N/A Snow Light Snow
7:53 AM 8.6 °F - 6.8 °F 92% 30.00 in 1.8 mi Calm Calm - N/A Snow Light Snow
8:13 AM 8.6 °F 2.0 °F 6.8 °F 92% 30.00 in 1.5 mi NNW 3.5 mph - N/A Snow Light Snow
8:33 AM 8.6 °F 0.1 °F 6.8 °F 92% 30.00 in 1.2 mi NNW 4.6 mph - 0.01 in Snow Light Snow
8:53 AM 8.6 °F 2.0 °F 6.8 °F 92% 30.00 in 1.2 mi North 3.5 mph - N/A Snow Light Snow
9:13 AM 8.6 °F 2.0 °F 6.8 °F 92% 30.00 in 1.0 mi NNW 3.5 mph - N/A Snow Light Snow
9:33 AM 8.6 °F -1.3 °F 6.8 °F 92% 30.01 in 0.5 mi NNW 5.8 mph - 0.01 in Snow Snow
9:53 AM 10.4 °F 4.0 °F 6.8 °F 85% 30.01 in 0.5 mi NNW 3.5 mph - N/A Snow Snow
10:13 AM 10.4 °F 0.8 °F 8.6 °F 92% 30.01 in 1.0 mi North 5.8 mph - N/A Snow Light Snow
10:33 AM 10.4 °F 4.0 °F 8.6 °F 92% 30.02 in 1.2 mi NNW 3.5 mph - 0.01 in Snow Light Snow
10:53 AM 12.2 °F 1.7 °F 8.6 °F 85% 30.02 in 1.2 mi North 6.9 mph - N/A Snow Light Snow
11:13 AM 12.2 °F 6.1 °F 10.4 °F 92% 30.01 in 1.8 mi North 3.5 mph - N/A Snow Light Snow
11:33 AM 12.2 °F 4.3 °F 10.4 °F 92% 30.01 in 1.5 mi North 4.6 mph - N/A Snow Light Snow
11:53 AM 12.2 °F 4.3 °F 10.4 °F 92% 30.01 in 1.5 mi North 4.6 mph - N/A Snow Light Snow
12:13 PM 12.2 °F 4.3 °F 10.4 °F 92% 30.02 in 1.0 mi NNW 4.6 mph - N/A Snow Light Snow
12:33 PM 12.2 °F 2.9 °F 10.4 °F 92% 30.01 in 0.8 mi North 5.8 mph - N/A Snow Light Snow
12:53 PM 10.4 °F 2.2 °F 8.6 °F 92% 30.01 in 0.5 mi NNW 4.6 mph - N/A Snow Snow
1:13 PM 10.4 °F 0.8 °F 8.6 °F 92% 30.01 in 0.8 mi NNW 5.8 mph - N/A Snow Light Snow
1:33 PM 10.4 °F 2.2 °F 8.6 °F 92% 30.01 in 1.0 mi NNW 4.6 mph - 0.01 in Snow Light Snow
1:53 PM 10.4 °F 0.8 °F 8.6 °F 92% 30.01 in 1.0 mi NNW 5.8 mph - N/A Snow Light Snow
2:13 PM 10.4 °F 2.2 °F 8.6 °F 92% 30.02 in 0.8 mi NNW 4.6 mph - 0.01 in Snow Light Snow
2:33 PM 10.4 °F 2.2 °F 8.6 °F 92% 30.02 in 1.0 mi NNW 4.6 mph - 0.01 in Snow Light Snow
2:53 PM 10.4 °F 2.2 °F 8.6 °F 92% 30.03 in 1.2 mi NNW 4.6 mph - N/A Snow Light Snow
3:13 PM 10.4 °F 2.2 °F 8.6 °F 92% 30.03 in 1.0 mi NW 4.6 mph - N/A Snow Light Snow
3:33 PM 10.4 °F - 6.8 °F 85% 30.05 in 0.8 mi Calm Calm - 0.01 in Snow Light Snow
3:53 PM 10.4 °F 4.0 °F 6.8 °F 85% 30.06 in 1.5 mi NNW 3.5 mph - N/A Snow Light Snow
4:13 PM 8.6 °F 0.1 °F 6.8 °F 92% 30.07 in 1.5 mi NNW 4.6 mph - N/A Snow Light Snow
4:33 PM 8.6 °F 0.1 °F 6.8 °F 92% 30.07 in 3.0 mi NNW 4.6 mph - N/A Snow Light Snow
4:53 PM 8.6 °F 0.1 °F 5.0 °F 85% 30.08 in 2.5 mi NNW 4.6 mph - N/A Snow Light Snow
5:13 PM 6.8 °F -3.5 °F 5.0 °F 92% 30.09 in 2.5 mi NNW 5.8 mph - N/A Snow Light Snow
5:33 PM 6.8 °F -2.0 °F 5.0 °F 92% 30.10 in 1.5 mi North 4.6 mph - N/A Snow Light Snow
5:53 PM 6.8 °F -0.1 °F 3.2 °F 85% 30.10 in 1.8 mi NNW 3.5 mph - N/A Snow Light Snow
6:13 PM 5.0 °F -5.6 °F 3.2 °F 92% 30.11 in 1.8 mi North 5.8 mph - N/A Snow Light Snow
6:33 PM 5.0 °F -2.1 °F 1.4 °F 85% 30.11 in 5.0 mi NNW 3.5 mph - N/A Snow Light Snow
6:53 PM 5.0 °F -2.1 °F 1.4 °F 85% 30.11 in 4.0 mi NNW 3.5 mph - N/A Snow Light Snow
7:13 PM 3.2 °F -7.8 °F 1.4 °F 92% 30.11 in 3.0 mi North 5.8 mph - N/A Snow Light Snow
7:33 PM 3.2 °F -6.2 °F 1.4 °F 92% 30.12 in 3.0 mi North 4.6 mph - N/A Snow Light Snow
7:53 PM 3.2 °F -4.2 °F 1.4 °F 92% 30.12 in 2.5 mi NNW 3.5 mph - N/A Snow Light Snow
8:13 PM 3.2 °F -7.8 °F -0.4 °F 85% 30.12 in 3.0 mi NNW 5.8 mph - N/A Snow Light Snow
8:33 PM 3.2 °F -4.2 °F -0.4 °F 85% 30.13 in 7.0 mi North 3.5 mph - N/A Snow Light Snow
8:53 PM 3.2 °F -4.2 °F -0.4 °F 85% 30.14 in 5.0 mi NNW 3.5 mph - N/A Snow Light Snow
9:13 PM 1.4 °F -6.2 °F -0.4 °F 92% 30.14 in 2.0 mi NNW 3.5 mph - N/A Snow Light Snow
9:33 PM 1.4 °F -9.9 °F -0.4 °F 92% 30.14 in 1.8 mi NNW 5.8 mph - N/A Snow Light Snow
9:53 PM 1.4 °F -8.3 °F -2.2 °F 85% 30.15 in 1.5 mi North 4.6 mph - N/A Snow Light Snow
10:13 PM 1.4 °F -8.3 °F -2.2 °F 85% 30.15 in 1.0 mi NNW 4.6 mph - N/A Snow Snow
10:33 PM 1.4 °F -8.3 °F -2.2 °F 85% 30.15 in 1.0 mi NNW 4.6 mph - N/A Snow Snow
10:53 PM -0.4 °F -13.4 °F -2.2 °F 92% 30.16 in 1.2 mi NNW 6.9 mph - N/A Snow Light Snow
11:13 PM -0.4 °F -13.4 °F -2.2 °F 92% 30.16 in 1.8 mi North 6.9 mph - N/A Snow Light Snow
11:33 PM -0.4 °F -14.7 °F -4.0 °F 85% 30.16 in 2.5 mi North 8.1 mph - N/A Snow Light Snow
11:53 PM -0.4 °F -12.0 °F -4.0 °F 85% 30.16 in 5.0 mi NNW 5.8 mph - N/A Snow Light Snow